Vertical_Velocity
3 0 1 -3 2 2 -1 -2 -2 -1 1 1 -1 -1 -1 -2 -2 -2 -3 -3 -3 -3
3 2 0 1 2 2 -1 -1 -2 -0 1 -0 -2 -2 -1 -2 -3 -3 -3 -2 -3 -2
0 -1 -0 1 2 2 0 -1 -2 -1 0 -1 -2 -2 -1 -1 -1 -2 -3 -2 -1 -3
2 1 -1 0 1 1 1 -1 -1 -1 -1 -1 -2 -1 -1 -1 -1 -2 -2 -4 -2 -2
3 1 -0 -0 1 1 1 -1 -2 -1 -1 -1 -1 0 0 -1 -3 -2 -0 -0 -1 -2
5 4 1 0 -1 1 -0 -1 -1 -1 0 -0 -1 -1 -1 -0 -1 -0 -1 -1 -1 -1
4 4 2 -0 1 -0 -0 -0 -1 -1 0 -1 -0 -0 -1 -0 -0 -1 -1 -2 -2 -1
3 3 2 0 -0 0 0 -1 -0 0 -1 0 -0 -1 -2 -1 -0 -0 0 -0 -3 -2
2 4 1 -1 2 1 -1 -0 0 -1 1 -0 -1 -0 -1 -2 -1 -1 -1 1 1 -1
3 2 1 2 1 -0 -1 1 -1 0 -1 -1 0 -1 -1 -1 -1 -0 -1 -2 -2 0
3 2 1 1 -0 1 0 -1 -1 -1 1 -1 -2 -1 -1 -1 -1 -2 -2 -2 -1 -2
2 2 0 1 0 -1 1 -1 -1 -0 -1 0 -2 -1 -1 -2 -1 0 1 2 -0 -3
1 1 1 0 0 0 -1 -0 -0 -1 -1 -3 0 -1 -2 -1 -0 3 1 -2 -2 1
2 1 0 -0 -1 -1 -1 -1 1 0 -2 -3 -3 0 -0 0 0 -2 -3 -3 0 -1
Height
3077 3079 3081 3083 3085 3086 3087 3088 3087 3086 3083 3080 3076 3072 3067 3062 3057 3052 3047 3042 3038 3032
3072 3075 3077 3079 3081 3082 3083 3083 3082 3080 3077 3073 3069 3065 3060 3055 3049 3044 3039 3034 3028 3023
3068 3071 3073 3076 3077 3078 3078 3078 3077 3074 3071 3067 3063 3058 3052 3046 3041 3036 3030 3024 3019 3013
3063 3066 3070 3072 3073 3073 3073 3072 3071 3068 3064 3060 3054 3049 3044 3038 3033 3026 3021 3015 3010 3004
3060 3063 3065 3067 3068 3068 3068 3066 3064 3061 3057 3051 3046 3040 3035 3029 3023 3018 3012 3007 3001 2995
3057 3059 3061 3062 3063 3063 3062 3059 3057 3053 3048 3043 3038 3032 3026 3020 3015 3009 3003 2996 2990 2983
3054 3055 3056 3057 3057 3056 3055 3053 3049 3045 3040 3035 3029 3023 3017 3011 3005 3000 2993 2986 2979 2971
3050 3051 3051 3051 3051 3050 3048 3045 3041 3036 3032 3026 3020 3014 3008 3001 2996 2990 2983 2976 2968 2961
3045 3046 3046 3045 3044 3043 3040 3036 3033 3028 3022 3017 3011 3005 2999 2992 2986 2979 2972 2965 2957 2949
3040 3040 3040 3039 3038 3035 3032 3028 3024 3019 3014 3007 3001 2996 2990 2983 2976 2969 2962 2953 2945 2936
3035 3035 3034 3032 3030 3027 3024 3020 3015 3009 3004 2999 2993 2987 2980 2973 2966 2959 2950 2941 2934 2924
3029 3029 3027 3026 3023 3020 3015 3011 3006 3001 2996 2991 2984 2978 2971 2963 2955 2947 2939 2932 2923 2914
3024 3023 3021 3018 3015 3012 3008 3003 2998 2993 2987 2981 2975 2968 2961 2952 2943 2937 2929 2921 2912 2904
3018 3016 3014 3011 3008 3004 2999 2995 2990 2985 2979 2973 2966 2958 2950 2944 2935 2925 2917 2909 2903 2897